Regional Weather Roundup
Issued by NWS

Home | Current Version | Previous Version | Graphics & Text | Print | Product List | Glossary On
Versions: 1 2 3 4 5 6 7 8 9 10 11 12 13 14 15 16 17 18 19 20 21 22 23 24 25 26 27 28 29 30 31 32 33 34 35 36 37 38 39 40 41 42 43 44 45 46 47 48 49 50
000
ASUS43 KOAX 202210
RWRNE

WEATHER ROUNDUP FOR NEBRASKA
NATIONAL WEATHER SERVICE OMAHA NE
500 PM CDT FRI OCT 20 2017

NOTES: SATELLITE DATA IS BEING USED TO AUGMENT CLOUD COVER ABOVE
       12000 FEET.
       "FAIR" INDICATES FEW OR NO CLOUDS BELOW 12,000 FEET WITH NO
       SIGNIFICANT WEATHER AND/OR OBSTRUCTIONS TO VISIBILITY.


NEZ001>004-019>022-054>056-202300-
NEBRASKA PANHANDLE

CITY           SKY/WX    TMP DP  RH WIND       PRES   REMARKS
SCOTTSBLUFF    SUNNY     81  33  17 S15       29.47F
ALLIANCE       SUNNY     75  40  28 S16       29.49S
CHADRON        SUNNY     82  33  17 SW13      29.40F
GORDON         FAIR      77  43  30 S15       29.45F
KIMBALL        SUNNY     77  30  18 SW14G20   29.55S
SIDNEY         SUNNY     77  38  24 S13       29.54S
$$

NEZ057>060-069>072-079>082-202300-
SOUTHWEST NEBRASKA

CITY           SKY/WX    TMP DP  RH WIND       PRES   REMARKS
NORTH PLATTE   CLOUDY    74  53  48 S7        29.52F
IMPERIAL       SUNNY     77  42  28 S13G22    29.52F
LEXINGTON      MOSUNNY   78  53  40 S30G39    29.55F
MCCOOK         SUNNY     80  51  36 S26G39    29.52F
OGALLALA       SUNNY     75  49  38 SE13      29.51F
$$

NEZ005>010-023>029-035>040-094-202300-
NORTH CENTRAL NEBRASKA

CITY           SKY/WX    TMP DP  RH WIND       PRES   REMARKS
VALENTINE      SUNNY     75  51  43 S21G35    29.47F
AINSWORTH      SUNNY     71  53  52 S17G32    29.51F
BROKEN BOW     SUNNY     73  54  51 S17G30    29.54F
O`NEILL        MOSUNNY   74  55  51 S22G38    29.55F
ORD            MOSUNNY   75  54  47 S22G40    29.56F
THEDFORD       MOSUNNY   74  52  45 S21G28    29.52F
$$

NEZ041-046>049-061>064-073>077-083>087-202300-
SOUTH CENTRAL NEBRASKA

CITY           SKY/WX    TMP DP  RH WIND       PRES   REMARKS
GRAND ISLAND   SUNNY     74  58  57 S28G43    29.62S
AURORA         CLOUDY    75  56  51 S25G44    29.63F
HASTINGS       SUNNY     74  55  51 S28G41    29.64S
HEBRON         MOSUNNY   77  57  50 S28G38    29.69F
HOLDREGE       SUNNY     76  53  44 S30G43    29.60S
KEARNEY        SUNNY     75  56  51 S29G43    29.59F
YORK           MOSUNNY   75  59  57 S30G39    29.65F
$$

NEZ011>018-030>034-042>045-202300-
NORTHEAST NEBRASKA

CITY           SKY/WX    TMP DP  RH WIND       PRES   REMARKS
NORFOLK        SUNNY     74  57  55 S24G37    29.59F
ALBION         PTSUNNY   77  57  50 S30G41    29.61S
BLAIR          CLOUDY    75  59  56 S25G32    29.72S
COLUMBUS       SUNNY     77  58  51 S25G35    29.64F
FREMONT        MOSUNNY   75  56  52 S21G31    29.70S
TEKAMAH        MOSUNNY   78  56  46 S26G39    29.69F
WAYNE          MOSUNNY   74  56  51 S29G37    29.64S
$$

NEZ050>053-065>068-078-088>093-202300-
SOUTHEAST NEBRASKA

CITY           SKY/WX    TMP DP  RH WIND       PRES   REMARKS
LINCOLN        CLOUDY    75  59  57 S24G36    29.70F
OMAHA EPPLEY   PTSUNNY   76  58  53 S24G30    29.73F
BEATRICE       CLOUDY    75  61  61 S21G29    29.73F
FALLS CITY     MOSUNNY   75  58  55 S18G36    29.79F
NEBRASKA CITY  CLOUDY    74  61  63 S23G37    29.78S
PLATTSMOUTH    CLOUDY    74  59  58 S21G29    29.76S
$$

NEZ044-045-051>053-067-202300-
OMAHA AREA

CITY           SKY/WX    TMP DP  RH WIND       PRES   REMARKS
OMAHA EPPLEY   PTSUNNY   76  58  53 S24G30    29.73F
BLAIR          CLOUDY    75  59  56 S25G32    29.72S
FREMONT        MOSUNNY   75  56  52 S21G31    29.70S
MILLARD        PTSUNNY   76  60  57 S21G26    29.73S
OFFUTT AFB     MOSUNNY   73  59  60 SE18G25   29.74S
PLATTSMOUTH    CLOUDY    74  59  58 S21G29    29.76S
WAHOO          MOCLDY    76  57  52 S31       29.70F
$$




USA.gov is the U.S. government's official web portal to all federal, state and local government web resources and services.